This demonstration page uses our WeatherBlox Daily Observations layout. Learn more.

Left ArrowRight Arrow

Hourly Observations for March 8, 2020

Temp ( °F °C ) Dew Point ( °F °C ) Humidity (%) Winds ( mph kmh ) Pressure ( in mb ) Visibility ( mi km ) Precip ( " mm )
12:54 am 00:54 Clear 54 12.2 26 -3.3 34 34 S 18 30 29.94 1014 10 16.0934 0 0
1:54 am 01:54 Clear 53 11.7 27 -2.8 37 37 S 18 30 29.94 1014 10 16.0934 0 0
3:54 am 03:54 Clear 51 10.6 28 -2.2 41 41 S 18 30 29.93 1014 10 16.0934 0 0
4:54 am 04:54 Clear 51 10.6 29 -1.7 43 43 S 20 31 29.92 1013 10 16.0934 0 0
5:54 am 05:54 Clear 50 10 30 -1.1 46 46 S 20 31 29.9 1012 10 16.0934 0 0
6:54 am 06:54 Clear 49 9.4 31 -0.6 50 50 S 20 31 29.9 1013 10 16.0934 0 0
7:54 am 07:54 Sunny 48 8.9 32 0 54 54 S 18 30 29.91 1013 10 16.0934 0 0
8:54 am 08:54 Sunny 50 10 32 0 50 50 S 22 35 29.89 1012 10 16.0934 0 0
9:54 am 09:54 Sunny 53 11.7 33 0.6 47 47 S 26 43 29.89 1012 10 16.0934 0 0
10:54 am 10:54 Sunny 57 13.9 34 1.1 42 42 SSW 22 35 29.89 1012 10 16.0934 0 0
11:54 am 11:54 Sunny 61 16.1 35 1.7 38 38 S 25 41 29.86 1011 10 16.0934 0 0
12:54 pm 12:54 Sunny 65 18.3 37 2.8 36 36 SSW 26 43 29.84 1011 10 16.0934 0 0
1:54 pm 13:54 Sunny 68 20 38 3.3 33 33 SSW 29 46 29.81 1010 10 16.0934 0 0
2:54 pm 14:54 Sunny 71 21.7 39 3.9 31 31 S 24 39 29.77 1008 10 16.0934 0 0
3:54 pm 15:54 Sunny 73 22.8 41 5 32 32 SSW 28 44 29.77 1008 10 16.0934 0 0
4:54 pm 16:54 Sunny 72 22.2 42 5.6 34 34 SSW 30 48 29.77 1008 10 16.0934 0 0
5:54 pm 17:54 Sunny 69 20.6 43 6.1 39 39 SSW 29 46 29.79 1009 10 16.0934 0 0
6:54 pm 18:54 Sunny 66 18.9 45 7.2 47 47 SSW 21 33 29.81 1009 10 16.0934 0 0
7:54 pm 19:54 Clear 63 17.2 45 7.2 52 52 SSW 13 20 29.84 1011 10 16.0934 0 0
8:54 pm 20:54 Clear 60 15.6 46 7.8 60 60 S 21 33 29.86 1011 10 16.0934 0 0
9:54 pm 21:54 Clear 59 15 46 7.8 62 62 SSW 14 22 29.88 1012 10 16.0934 0 0
10:54 pm 22:54 Mostly Clear 58 14.4 47 8.3 67 67 SSW 17 28 29.9 1013 10 16.0934 0 0
11:27 pm 23:27 Mostly Cloudy 58 14.4 48 8.9 70 70 SSW 15 24 29.91 1013 10 16.0934 0 0
11:54 pm 23:54 Cloudy 58 14.4 48 8.9 70 70 SSW 13 20 29.91 1013 10 16.0934 0 0

Powered by AerisWeather